Quesnel,

11:20 PM PDT on June 26, 2017 (GMT -0700)
Quesnel

Weather History for CYQZ - September, 2012

Change the Weather History Date:

Thursday, September 27, 2012

  Actual Average Record
Temperature  
Mean Temperature 52 °F -  
Max Temperature 73 °F 50 °F 73 °F (2012)
Min Temperature 32 °F 32 °F 28 °F (1999)
Degree Days  
Heating Degree Days 12    
Growing Degree Days 2 (Base 50)    
Moisture  
Dew Point 37 °F    
Average Humidity 78    
Maximum Humidity 100    
Minimum Humidity 23    
Precipitation  
Precipitation 0.00 in - - ()
Sea Level Pressure  
Sea Level Pressure 30.03 in    
Wind  
Wind Speed 2 mph ()    
Max Wind Speed 10 mph    
Max Gust Speed -    
Visibility 7.5 miles    
Events      
Averages and records for this station are not official NWS values.
T = Trace of Precipitation, MM = Missing Value Source: Averaged Metar Reports

Daily Weather History Graph

Daily Weather History Graph

Search for Another Location

Airport or City:

Trip Planner

Search our weather history database for the weather conditions in past years. The results will help you decide how hot, cold, wet, or windy it might be!

Date:

Astronomy

Sep. 27, 2012 Rise Set
Actual Time 7:05 AM PDT 6:54 PM PDT
Civil Twilight 6:31 AM PDT 7:29 PM PDT
Nautical Twilight 5:50 AM PDT 8:09 PM PDT
Astronomical Twilight 5:08 AM PDT 8:51 PM PDT
Moon 5:38 PM PDT 4:26 AM PDT
Length of Visible Light 12h 58m
Length of Day
11h 49m
Waxing Gibbous, 94% of the Moon is Illuminated
Sep 27
Waxing Gibbous
Sep 29
Full
Oct 8
Last Quarter
Oct 15
New
Oct 21
First Quarter

Hourly Weather History & Observations

Time (PDT) Temp. Dew Point Humidity Pressure Visibility Wind Dir Wind Speed Gust Speed Precip Events Conditions
12:00 AM 39.2 °F 39.2 °F 100% 30.08 in 9.0 mi Calm Calm - N/A   Clear
1:00 AM 39.2 °F 35.6 °F 87% 30.08 in 9.0 mi Calm Calm - N/A   Clear
2:00 AM 37.4 °F 37.4 °F 100% 30.08 in 9.0 mi Variable 2.3 mph - N/A   Clear
3:00 AM 37.4 °F 35.6 °F 93% 30.09 in 9.0 mi Calm Calm - N/A   Clear
3:17 AM 35.6 °F 35.6 °F 100% 30.09 in 4.0 mi Calm Calm - N/A   Clear
3:18 AM 35.6 °F 35.6 °F 100% 30.09 in 2.5 mi Calm Calm - N/A   Clear
3:27 AM 35.6 °F 35.6 °F 100% 30.09 in 4.0 mi Calm Calm - N/A   Clear
3:28 AM 35.6 °F 35.6 °F 100% 30.09 in 9.0 mi Calm Calm - N/A   Clear
4:00 AM 35.6 °F 35.6 °F 100% 30.09 in 9.0 mi Variable 2.3 mph - N/A   Clear
4:30 AM 33.8 °F 32.0 °F 93% 30.09 in 4.0 mi Variable 2.3 mph - N/A   Clear
4:36 AM 33.8 °F 33.8 °F 100% 30.09 in 2.5 mi Calm Calm - N/A   Clear
4:40 AM 33.8 °F 33.8 °F 100% 30.09 in 4.0 mi Calm Calm - N/A   Clear
4:46 AM 35.6 °F 35.6 °F 100% 30.09 in 9.0 mi Calm Calm - N/A   Clear
5:00 AM 33.8 °F 33.8 °F 100% 30.09 in 6.0 mi Variable 2.3 mph - N/A   Clear
5:59 AM 32.0 °F 32.0 °F 100% 30.09 in 4.0 mi Calm Calm - N/A   Clear
6:00 AM 32.0 °F 32.0 °F 100% 30.09 in 4.0 mi Calm Calm - N/A   Clear
6:18 AM 32.0 °F 32.0 °F 100% 30.09 in 6.0 mi Calm Calm - N/A   Clear
8:00 AM 33.8 °F 33.8 °F 100% 30.11 in 9.0 mi Calm Calm - N/A   Clear
9:00 AM 41.0 °F 39.2 °F 93% 30.10 in 9.0 mi Calm Calm - N/A   Clear
10:00 AM 48.2 °F 41.0 °F 76% 30.09 in 9.0 mi Variable 2.3 mph - N/A   Clear
11:00 AM 53.6 °F 41.0 °F 62% 30.07 in 9.0 mi South 6.9 mph - N/A   Clear
12:00 PM 60.8 °F 41.0 °F 48% 30.05 in 9.0 mi South 8.1 mph - N/A   Overcast
1:00 PM 68.0 °F 39.2 °F 35% 30.01 in 9.0 mi SSE 10.4 mph - N/A   Overcast
2:00 PM 69.8 °F 39.2 °F 33% 29.97 in 9.0 mi SSW 9.2 mph - N/A   Overcast
3:00 PM 71.6 °F 39.2 °F 31% 29.95 in 9.0 mi SE 6.9 mph - N/A   Mostly Cloudy
4:00 PM 71.6 °F 39.2 °F 31% 29.92 in 9.0 mi SE 6.9 mph - N/A   Overcast
5:00 PM 73.4 °F 39.2 °F 29% 29.89 in 9.0 mi SE 6.9 mph - N/A   Clear
6:00 PM 73.4 °F 33.8 °F 23% 29.87 in 9.0 mi SSE 6.9 mph - N/A   Clear
7:00 PM 62.6 °F 42.8 °F 48% 29.87 in 9.0 mi Calm Calm - N/A   Clear
8:00 PM 55.4 °F 44.6 °F 67% 29.88 in 9.0 mi Calm Calm - N/A   Clear
9:00 PM 51.8 °F 44.6 °F 76% 29.89 in 9.0 mi Calm Calm - N/A   Clear
10:00 PM 48.2 °F 42.8 °F 82% 29.90 in 9.0 mi Variable 4.6 mph - N/A   Clear
11:00 PM 48.2 °F 42.8 °F 82% 29.89 in 9.0 mi Calm Calm - N/A   Clear